STARLINK-34301 (64349 NORAD) Tracking and Keplerian Element Data

This shows tracking and keplerian element data for the satellite.

Feedback or suggestion? Click here.




ElementValue
Catalog64349
NameSTARLINK-34301
Epoch Orbit2876
Epoch Day354.11218582
Epoch Year2025
RAAN235.0299
Inclination69.9993
Eccentricity0.0002697
Argument of Perigee277.5124
Mean Anonmoly82.5729
Mean Motion14.98348129
Decay Rate1.298E-05
L11 64349U 25126F 25354.11218582 .00001298 00000+0 11653-3 0 9997
L22 64349 69.9993 235.0299 0002697 277.5124 82.5729 14.98348129 28760



Live tracking and technical data element details for STARLINK-34301 (NORAD 64349). STARLINK-34301 can be tracked NOW for your location showing map with azimuth and elevation plus other details from your city location.







IsCatalogInMostPopularTable: catalog: 64349, numindb: 9
Update: records affected: 1



GetName: 64349 STARLINK-34301

Hit Count: updated at: Wed, 15 Apr 2026 00:59:47 GMT